timestamp,surface_pressure_avg,surface_temp_avg,battery_voltage,lat,long
2020-08-12 00:09:01+00:00,229.1648,19.8,12.81,47.84626,-54.09684
2020-08-12 00:19:01+00:00,227.6614,19.8,12.73,47.84626,-54.09684
2020-08-12 00:29:01+00:00,227.1631,19.8,12.73,47.84626,-54.09684
2020-08-12 00:39:01+00:00,228.4397,19.8,12.73,47.84626,-54.09684
2020-08-12 00:49:01+00:00,229.5914,19.8,12.73,47.84626,-54.09684
2020-08-12 00:59:01+00:00,230.8398,19.8,12.73,47.84626,-54.09684
2020-08-12 01:09:01+00:00,232.2631,19.8,12.73,47.84626,-54.09684
2020-08-12 01:19:01+00:00,234.3747,19.8,12.73,47.84626,-54.09684
2020-08-12 01:29:01+00:00,235.4114,19.8,12.73,47.84626,-54.09684
2020-08-12 01:39:01+00:00,238.0731,19.72,12.73,47.84626,-54.09684
2020-08-12 01:49:01+00:00,243.0698,19.7,12.73,47.84626,-54.09684
2020-08-12 01:59:01+00:00,246.798,19.7,12.73,47.84626,-54.09684
2020-08-12 02:09:01+00:00,248.3214,19.7,12.73,47.84626,-54.09684
2020-08-12 02:19:01+00:00,253.6381,19.7,12.73,47.84626,-54.09684
2020-08-12 02:29:01+00:00,260.1398,19.7,12.73,47.84626,-54.09684
2020-08-12 02:39:01+00:00,263.4565,19.6,12.73,47.84626,-54.09684
2020-08-12 02:49:01+00:00,266.0731,19.6,12.73,47.84626,-54.09684
2020-08-12 02:59:01+00:00,273.3647,19.55,12.73,47.84626,-54.09684
2020-08-12 03:09:01+00:00,276.9913,19.4,12.73,47.84626,-54.09684
2020-08-12 03:19:01+00:00,276.6998,19.36,12.73,47.84626,-54.09684
2020-08-12 03:29:01+00:00,281.4897,19.37,12.73,47.84626,-54.09684
2020-08-12 03:39:01+00:00,290.0914,19.3,12.73,47.84626,-54.09684
2020-08-12 03:49:01+00:00,291.0464,19.3,12.73,47.84626,-54.09684
2020-08-12 03:59:01+00:00,289.6747,19.3,12.73,47.84626,-54.09684
2020-08-12 04:09:01+00:00,293.9363,19.3,12.73,47.84626,-54.09684
2020-08-12 04:19:01+00:00,297.673,19.27,12.73,47.84626,-54.09684
2020-08-12 04:29:01+00:00,296.5664,19.25,12.73,47.84626,-54.09684
2020-08-12 04:39:01+00:00,298.3864,19.29,12.73,47.84626,-54.09684
2020-08-12 04:49:01+00:00,302.0214,19.3,12.73,47.84626,-54.09684
2020-08-12 04:59:01+00:00,304.8547,19.3,12.73,47.84626,-54.09684
2020-08-12 05:09:01+00:00,304.5963,19.3,12.73,47.84626,-54.09684
2020-08-12 05:19:01+00:00,304.6547,19.3,12.73,47.84626,-54.09684
2020-08-12 05:29:01+00:00,304.448,19.3,12.73,47.84626,-54.09684
2020-08-12 05:39:01+00:00,305.5547,19.31,12.73,47.84626,-54.09684
2020-08-12 05:49:01+00:00,304.418,19.4,12.73,47.84626,-54.09684
2020-08-12 05:59:01+00:00,302.3664,19.4,12.73,47.84626,-54.09684
2020-08-12 06:09:01+00:00,298.868,19.4,12.73,47.84626,-54.09684
2020-08-12 06:19:01+00:00,298.6631,19.44,12.73,47.84626,-54.09684
2020-08-12 06:29:01+00:00,295.5997,19.47,12.73,47.84626,-54.09684
2020-08-12 06:39:01+00:00,291.408,19.49,12.73,47.84626,-54.09684
2020-08-12 06:49:01+00:00,289.0696,19.5,12.73,47.84626,-54.09684
2020-08-12 06:59:01+00:00,288.5647,19.5,12.73,47.84626,-54.09684
2020-08-12 07:09:01+00:00,283.483,19.5,12.73,47.84626,-54.09684
2020-08-12 07:19:01+00:00,278.5614,19.5,12.73,47.84626,-54.09684
2020-08-12 07:29:01+00:00,278.5214,19.5,12.73,47.84626,-54.09684
2020-08-12 07:39:01+00:00,276.9147,19.5,12.73,47.84626,-54.09684
2020-08-12 07:49:01+00:00,271.1147,19.5,12.73,47.84626,-54.09684
2020-08-12 07:59:01+00:00,264.7664,19.56,12.73,47.84626,-54.09684
2020-08-12 08:09:01+00:00,262.3263,19.53,12.73,47.84626,-54.09684
2020-08-12 08:19:01+00:00,258.0781,19.5,12.65,47.84626,-54.09684
2020-08-12 08:29:01+00:00,252.6564,19.5,12.65,47.84626,-54.09684
2020-08-12 08:39:01+00:00,248.0831,19.5,12.65,47.84626,-54.09684
2020-08-12 08:49:01+00:00,245.3314,19.5,12.65,47.84626,-54.09684
2020-08-12 08:59:01+00:00,240.0981,19.57,12.65,47.84626,-54.09684
2020-08-12 09:09:01+00:00,235.9265,19.6,12.65,47.84626,-54.09684
2020-08-12 09:19:01+00:00,233.4264,19.6,12.65,47.84626,-54.09684
2020-08-12 09:29:01+00:00,228.2964,19.6,12.65,47.84626,-54.09684
2020-08-12 09:39:01+00:00,223.2664,19.6,12.65,47.84626,-54.09684
2020-08-12 09:49:01+00:00,221.0131,19.6,12.65,47.84626,-54.09684
2020-08-12 09:59:01+00:00,218.7231,19.64,12.65,47.84626,-54.09684
2020-08-12 10:09:01+00:00,214.4648,19.68,12.65,47.84626,-54.09684
2020-08-12 10:19:01+00:00,212.1531,19.7,12.81,47.84626,-54.09684
2020-08-12 10:29:01+00:00,212.6031,19.7,12.81,47.84626,-54.09684
2020-08-12 10:39:01+00:00,212.6114,19.7,12.81,47.84626,-54.09684
2020-08-12 10:49:01+00:00,213.3997,19.7,12.81,47.84626,-54.09684
2020-08-12 10:59:01+00:00,214.6964,19.7,12.81,47.84626,-54.09684
2020-08-12 11:09:01+00:00,216.8831,19.7,12.81,47.84626,-54.09684
2020-08-12 11:19:01+00:00,219.9447,19.7,13.05,47.84626,-54.09684
2020-08-12 11:29:01+00:00,222.3114,19.73,13.05,47.84626,-54.09684
2020-08-12 11:39:01+00:00,223.4531,19.8,13.05,47.84626,-54.09684
2020-08-12 11:49:01+00:00,226.2681,19.8,13.05,47.84626,-54.09684
2020-08-12 11:59:01+00:00,229.2614,19.8,13.05,47.84626,-54.09684
2020-08-12 12:09:01+00:00,231.5381,19.8,13.05,47.84626,-54.09684
2020-08-12 12:19:01+00:00,232.8681,19.8,13.68,47.84626,-54.09684
2020-08-12 12:29:01+00:00,236.1031,19.8,13.68,47.84626,-54.09684
2020-08-12 12:39:01+00:00,240.1098,19.8,13.68,47.84626,-54.09684
2020-08-12 12:49:01+00:00,240.8031,19.79,13.68,47.84626,-54.09684
2020-08-12 12:59:01+00:00,239.4114,19.79,13.68,47.84626,-54.09684
2020-08-12 13:09:01+00:00,241.0664,19.79,13.68,47.84626,-54.09684
2020-08-12 13:19:01+00:00,244.2081,19.78,13.68,47.84626,-54.09684
2020-08-12 13:29:01+00:00,244.2548,19.8,13.68,47.84626,-54.09684
2020-08-12 13:39:01+00:00,243.1297,19.8,13.68,47.84626,-54.09684
2020-08-12 13:49:01+00:00,245.5597,19.8,13.68,47.84626,-54.09684
2020-08-12 13:59:01+00:00,248.8631,19.8,13.68,47.84626,-54.09684
2020-08-12 14:09:01+00:00,251.1881,19.82,13.68,47.84626,-54.09684
2020-08-12 14:19:01+00:00,252.5231,19.88,13.92,47.84626,-54.09684
2020-08-12 14:29:01+00:00,255.8014,19.89,13.92,47.84626,-54.09684
2020-08-12 14:39:01+00:00,260.6364,19.8,13.92,47.84626,-54.09684
2020-08-12 14:49:01+00:00,267.1914,19.8,13.92,47.84626,-54.09684
2020-08-12 14:59:01+00:00,270.7614,19.8,13.92,47.84626,-54.09684
2020-08-12 15:09:01+00:00,273.3831,19.82,13.92,47.84626,-54.09684
2020-08-12 15:19:01+00:00,278.5464,19.88,13.92,47.84626,-54.09684
2020-08-12 15:29:01+00:00,286.1696,19.87,13.92,47.84626,-54.09684
2020-08-12 15:39:01+00:00,290.088,19.89,13.92,47.84626,-54.09684
2020-08-12 15:49:01+00:00,291.928,19.9,13.92,47.84626,-54.09684
2020-08-12 15:59:01+00:00,296.213,19.9,13.92,47.84626,-54.09684
2020-08-12 16:09:01+00:00,301.373,19.9,13.92,47.84626,-54.09684
2020-08-12 16:19:01+00:00,302.743,19.9,14.08,47.84626,-54.09684
2020-08-12 16:29:01+00:00,303.2213,19.9,14.08,47.84626,-54.09684
2020-08-12 16:39:01+00:00,307.5831,19.9,14.08,47.84626,-54.09684
2020-08-12 16:49:01+00:00,310.4214,19.9,14.08,47.84626,-54.09684
2020-08-12 16:59:01+00:00,309.7614,19.9,14.08,47.84626,-54.09684
2020-08-12 17:09:01+00:00,310.2997,19.9,14.08,47.84626,-54.09684
2020-08-12 17:19:01+00:00,315.2496,19.89,14.08,47.84626,-54.09684
2020-08-12 17:29:01+00:00,317.108,19.87,14.08,47.84626,-54.09684
2020-08-12 17:39:01+00:00,315.223,19.8,14.08,47.84626,-54.09684
2020-08-12 17:49:01+00:00,317.548,19.8,14.08,47.84626,-54.09684
2020-08-12 17:59:01+00:00,321.0213,19.7,14.08,47.84626,-54.09684
2020-08-12 18:09:01+00:00,321.2497,19.6,14.08,47.84626,-54.09684
2020-08-12 18:19:01+00:00,317.8347,19.6,14.0,47.84626,-54.09684
2020-08-12 18:29:01+00:00,317.0914,19.6,14.0,47.84626,-54.09684
2020-08-12 18:39:01+00:00,318.1196,19.6,14.0,47.84626,-54.09684
2020-08-12 18:49:01+00:00,315.7697,19.5,14.0,47.84626,-54.09684
2020-08-12 18:59:01+00:00,313.5946,19.5,14.0,47.84626,-54.09684
2020-08-12 19:09:01+00:00,311.0464,19.53,14.0,47.84626,-54.09684
2020-08-12 19:19:01+00:00,310.2712,19.5,14.0,47.84626,-54.09684
2020-08-12 19:29:01+00:00,308.9547,19.5,14.0,47.84626,-54.09684
2020-08-12 19:39:01+00:00,306.4796,19.49,14.0,47.84626,-54.09684
2020-08-12 19:49:01+00:00,302.598,19.5,14.0,47.84626,-54.09684
2020-08-12 19:59:01+00:00,299.6481,19.5,14.0,47.84626,-54.09684
2020-08-12 20:09:01+00:00,295.8747,19.5,14.0,47.84626,-54.09684
2020-08-12 20:19:01+00:00,290.6997,19.58,13.76,47.84626,-54.09684
2020-08-12 20:29:01+00:00,285.4964,19.6,13.76,47.84626,-54.09684
2020-08-12 20:39:01+00:00,281.173,19.6,13.76,47.84626,-54.09684
2020-08-12 20:49:01+00:00,277.8048,19.54,13.76,47.84626,-54.09684
2020-08-12 20:59:01+00:00,275.02299999999997,19.54,13.76,47.84626,-54.09684
2020-08-12 21:09:01+00:00,269.7781,19.6,13.76,47.84626,-54.09684
2020-08-12 21:19:01+00:00,263.923,19.6,13.44,47.84626,-54.09684
2020-08-12 21:29:01+00:00,257.3648,19.6,13.44,47.84626,-54.09684
2020-08-12 21:39:01+00:00,252.2714,19.57,13.44,47.84626,-54.09684
2020-08-12 21:49:01+00:00,246.6514,19.59,13.44,47.84626,-54.09684
2020-08-12 21:59:01+00:00,241.2698,19.6,13.44,47.84626,-54.09684
2020-08-12 22:09:01+00:00,236.0364,19.69,13.44,47.84626,-54.09684
2020-08-12 22:19:01+00:00,232.6214,19.7,13.21,47.84626,-54.09684
2020-08-12 22:29:01+00:00,230.1198,19.79,13.21,47.84626,-54.09684
2020-08-12 22:39:01+00:00,228.1948,19.8,13.21,47.84626,-54.09684
2020-08-12 22:49:01+00:00,226.1531,19.87,13.21,47.84626,-54.09684
2020-08-12 22:59:01+00:00,223.6064,19.9,13.21,47.84626,-54.09684
2020-08-12 23:09:01+00:00,221.5497,19.9,13.21,47.84626,-54.09684
2020-08-12 23:19:01+00:00,221.7498,19.9,12.89,47.84626,-54.09684
2020-08-12 23:29:01+00:00,222.9281,19.9,12.89,47.84626,-54.09684
2020-08-12 23:39:01+00:00,223.5365,19.9,12.89,47.84626,-54.09684
2020-08-12 23:49:01+00:00,224.1464,19.9,12.89,47.84626,-54.09684
2020-08-12 23:59:01+00:00,223.9381,19.9,12.89,47.84626,-54.09684
